Weather History for Southend-On-Sea, United Kingdom

Change the Weather History Date:

Monday, January 13, 2014

  Actual Average Record
Temperature  
Mean Temperature 44 °F -  
Max Temperature 50 °F 44 °F 55 °F (2011)
Min Temperature 39 °F 35 °F 28 °F (2012)
Degree Days  
Heating Degree Days 20    
Moisture  
Dew Point 40 °F    
Average Humidity 81    
Maximum Humidity 100    
Minimum Humidity 71    
Precipitation  
Precipitation 0.00 in - - ()
Sea Level Pressure  
Sea Level Pressure 29.67 in    
Wind  
Wind Speed 13 mph ()    
Max Wind Speed 102 mph    
Max Gust Speed -    
Visibility 6.2 miles    
Events Rain    
Averages and records for this station are not official NWS values.
T = Trace of Precipitation, MM = Missing Value Source: Averaged Metar Reports

Daily Weather History Graph

Daily Weather History Graph

Search for Another Location

Airport:

Trip Planner

Search our weather history database for the weather conditions in past years. The results will help you decide how hot, cold, wet, or windy it might be!

Date:

Astronomy

Jan. 13, 2014 Rise Set
Actual Time 7:58 AM GMT 4:14 PM GMT
Civil Twilight 7:19 AM GMT 4:52 PM GMT
Nautical Twilight 6:37 AM GMT 5:35 PM GMT
Astronomical Twilight 5:57 AM GMT 6:15 PM GMT
Moon 2:19 PM GMT (1/13) 5:32 AM GMT (1/13)
Length of Visible Light 9h 33m
Length of Day
8h 15m
Waxing Gibbous, 94% of the Moon is Illuminated
Jan 13
Waxing Gibbous
Jan 16
Full
Jan 24
Last Quarter
Jan 30
New
Feb 6
First Quarter

Hourly Weather History & Observations

Time (GMT) Temp. Windchill Dew Point Humidity Pressure Visibility Wind Dir Wind Speed Gust Speed Precip Events Conditions
12:50 AM 50.0 °F - 46.4 °F 87% 29.68 in 6.2 mi SSW 17.3 mph - N/A Rain Light Rain
1:50 AM 46.4 °F 38.5 °F 42.8 °F 87% 29.71 in 6.2 mi West 21.9 mph - N/A   Partly Cloudy
2:50 AM 46.4 °F 39.8 °F 41.0 °F 81% 29.74 in 6.2 mi WSW 16.1 mph - N/A   Partly Cloudy
3:50 AM 39.2 °F 31.6 °F 39.2 °F 100% 29.74 in - WSW 12.7 mph - N/A   Clear
5:20 AM 42.8 °F 36.2 °F 39.2 °F 87% 29.74 in - SW 12.7 mph - N/A   Clear
5:50 AM 44.6 °F 38.1 °F 39.2 °F 81% 29.74 in - SW 13.8 mph - N/A   Clear
6:20 AM 42.8 °F 36.2 °F 39.2 °F 87% 29.74 in - SW 12.7 mph - N/A   Clear
6:50 AM 42.8 °F 36.6 °F 39.2 °F 87% 29.77 in - SW 11.5 mph - N/A   Clear
7:20 AM 42.8 °F 35.8 °F 39.2 °F 87% 29.77 in - SW 13.8 mph - N/A   Clear
7:50 AM 41.0 °F 34.7 °F 39.2 °F 93% 29.77 in - SW 10.4 mph - N/A   Clear
8:20 AM 41.0 °F 36.4 °F 37.4 °F 87% 29.77 in - SSW 6.9 mph - N/A   Clear
8:50 AM 42.8 °F 38.0 °F 39.2 °F 87% 29.77 in - SSW 8.1 mph - N/A   Clear
9:20 AM 44.6 °F 39.7 °F 41.0 °F 87% 29.77 in - SSW 9.2 mph - N/A   Clear
9:50 AM 44.6 °F 38.4 °F 41.0 °F 87% 29.77 in 6.2 mi SSW 12.7 mph - N/A   Partly Cloudy
10:20 AM 44.6 °F 38.4 °F 41.0 °F 87% 29.77 in - SSW 12.7 mph - N/A   Clear
10:50 AM 46.4 °F 40.7 °F 41.0 °F 81% 29.74 in 6.2 mi SSW 12.7 mph - N/A   Partly Cloudy
11:20 AM 48.2 °F - 41.0 °F 76% 29.74 in 6.2 mi SSW 12.7 mph - N/A   Partly Cloudy
11:50 AM 48.2 °F - 41.0 °F 76% 29.74 in 6.2 mi SSW 12.7 mph - N/A   Partly Cloudy
12:20 PM 48.2 °F - 39.2 °F 71% 29.71 in 6.2 mi SSW 13.8 mph - N/A   Partly Cloudy
12:50 PM 46.4 °F 40.4 °F 39.2 °F 76% 29.71 in 6.2 mi SSW 13.8 mph - N/A   Partly Cloudy
1:20 PM 46.4 °F 40.7 °F 39.2 °F 76% 29.68 in 6.2 mi SSW 12.7 mph - N/A   Partly Cloudy
1:50 PM 48.2 °F - 39.2 °F 71% 29.68 in 6.2 mi SSW 11.5 mph - N/A   Partly Cloudy
2:20 PM 48.2 °F - 41.0 °F 76% 29.68 in 6.2 mi South 11.5 mph - N/A   Partly Cloudy
2:50 PM 46.4 °F 41.5 °F 39.2 °F 76% 29.65 in 6.2 mi South 10.4 mph - N/A   Partly Cloudy
3:20 PM 46.4 °F 41.9 °F 39.2 °F 76% 29.65 in 6.2 mi South 9.2 mph - N/A   Partly Cloudy
3:50 PM 48.2 °F - 41.0 °F 76% 29.65 in 6.2 mi South 11.5 mph - N/A   Partly Cloudy
4:20 PM 46.4 °F 40.7 °F 39.2 °F 76% 29.62 in 6.2 mi South 12.7 mph - N/A   Partly Cloudy
4:50 PM 46.4 °F 40.1 °F 41.0 °F 81% 29.62 in 6.2 mi South 15.0 mph - N/A Rain Light Rain Showers
5:20 PM 46.4 °F 40.7 °F 39.2 °F 76% 29.62 in 6.2 mi South 12.7 mph - N/A Rain Light Rain Showers
5:50 PM 46.4 °F 40.1 °F 41.0 °F 81% 29.62 in 6.2 mi South 15.0 mph - N/A   Scattered Clouds
6:20 PM 46.4 °F 40.1 °F 41.0 °F 81% 29.62 in 6.2 mi South 15.0 mph - N/A   Scattered Clouds
6:50 PM 46.4 °F 40.7 °F 41.0 °F 81% 29.59 in 6.2 mi South 12.7 mph - N/A   Mostly Cloudy
7:20 PM 46.4 °F 40.4 °F 41.0 °F 81% 29.59 in 6.2 mi South 13.8 mph - N/A   Scattered Clouds
7:50 PM 46.4 °F 41.9 °F 41.0 °F 81% 29.59 in 6.2 mi South 9.2 mph - N/A   Mostly Cloudy
8:20 PM 46.4 °F 41.1 °F 39.2 °F 76% 29.59 in 6.2 mi South 11.5 mph - N/A   Mostly Cloudy
8:50 PM 46.4 °F 41.1 °F 39.2 °F 76% 29.56 in 6.2 mi South 11.5 mph - N/A   Scattered Clouds
9:20 PM 44.6 °F 39.2 °F 39.2 °F 81% 29.56 in 6.2 mi SSW 10.4 mph - N/A Rain Light Rain
9:50 PM 46.4 °F - 41.0 °F 81% 29.56 in 6.2 mi South 102.4 mph - N/A   Mostly Cloudy
10:20 PM 46.4 °F 41.1 °F 39.2 °F 76% 29.56 in 6.2 mi South 11.5 mph - N/A   Mostly Cloudy
10:50 PM 44.6 °F 38.8 °F 39.2 °F 81% 29.56 in 6.2 mi South 11.5 mph - N/A   Scattered Clouds
11:20 PM 44.6 °F 38.8 °F 39.2 °F 81% 29.56 in 6.2 mi South 11.5 mph - N/A   Partly Cloudy
11:50 PM 46.4 °F 41.1 °F 39.2 °F 76% 29.56 in 6.2 mi SSW 11.5 mph - N/A   Partly Cloudy